This demonstration page uses our WeatherBlox Daily Observations layout. Learn more.

Left ArrowRight Arrow

41.55636, -103.73856

Hourly Observations for February 14, 2015

Temp ( °F °C ) Dew Point ( °F °C ) Humidity (%) Winds ( mph kmh ) Pressure ( in mb ) Visibility ( mi km ) Precip ( " mm )
12:53 am 00:53 Clear 30 -1.1 26 -3.3 85 85 WNW 6 9 30.16 1022 10 16.0934 0 0
1:53 am 01:53 Clear 29 -1.7 25 -3.9 85 85 NNW 6 9 30.16 1021 10 16.0934 0 0
2:53 am 02:53 Clear 29 -1.7 25 -3.9 85 85 NW 5 7 30.15 1021 10 16.0934 0 0
3:53 am 03:53 Clear 29 -1.7 25 -3.9 85 85 WNW 7 11 30.14 1021 10 16.0934 0 0
4:53 am 04:53 Clear 29 -1.7 25 -3.9 85 85 NNW 7 11 30.14 1021 10 16.0934 0 0
5:53 am 05:53 Clear 28 -2.2 24 -4.4 85 85 NNW 6 9 30.16 1021 10 16.0934 0 0
6:53 am 06:53 Sunny 26 -3.3 23 -5 88 88 NW 5 7 30.18 1022 10 16.0934 0 0
7:53 am 07:53 Sunny 30 -1.1 26 -3.3 85 85 Calm 30.19 1022 10 16.0934 0 0
8:53 am 08:53 Sunny 36 2.2 31 -0.6 82 82 Calm 30.18 1022 10 16.0934 0 0
9:53 am 09:53 Sunny 41 5 33 0.6 73 73 SSE 5 7 30.18 1022 10 16.0934 0 0
10:53 am 10:53 Sunny 49 9.4 34 1.1 56 56 ESE 14 22 30.14 1021 10 16.0934 0 0
11:53 am 11:53 Sunny 50 10 33 0.6 52 52 ESE 17 28 30.11 1020 10 16.0934 0 0
12:53 pm 12:53 Sunny 50 10 34 1.1 54 54 ESE 18 30 30.1 1019 10 16.0934 0 0
1:53 pm 13:53 Sunny 44 6.7 32 0 63 63 ESE 23 37 30.1 1019 10 16.0934 0 0
2:53 pm 14:53 Sunny 37 2.8 29 -1.7 73 73 ESE 23 37 30.08 1019 10 16.0934 0 0
3:53 pm 15:53 Mostly Sunny 33 0.6 27 -2.8 78 78 E 21 33 30.11 1020 8 12.87472 0 0
4:53 pm 16:53 Sunny 31 -0.6 25 -3.9 79 79 E 20 31 30.13 1020 8 12.87472 0 0
5:15 pm 17:15 Mostly Cloudy with Haze 30 -1.1 25 -3.9 82 82 E 18 30 30.18 1022 6 9.65604 0 0
5:38 pm 17:38 Cloudy 28 -2 25 -4 86 86 ESE 20 31 30.21 1023 7 11.26538 0 0
5:53 pm 17:53 Cloudy with Mist and Fog 29 -1.7 25 -3.9 85 85 E 18 30 30.16 1021 6 9.65604 0 0
6:53 pm 18:53 Cloudy with Mist and Fog 28 -2.2 25 -3.9 88 88 ESE 20 31 30.18 1022 6 9.65604 0 0
7:53 pm 19:53 Cloudy with Mist and Fog 27 -2.8 24 -4.4 89 89 ESE 16 26 30.16 1022 6 9.65604 0 0
8:23 pm 20:23 Partly Cloudy 27 -2.8 24 -4.4 89 89 SE 13 20 30.24 1024 8 12.87472 0 0
8:53 pm 20:53 Mostly Clear 27 -2.8 25 -3.9 92 92 ESE 13 20 30.15 1021 7 11.26538 0 0
9:07 pm 21:07 Mostly Cloudy 28 -2.2 26 -3.3 92 92 ESE 13 20 30.24 1024 7 11.26538 0 0
9:32 pm 21:32 Cloudy 28 -2 27 -3 93 93 ESE 12 19 30.24 1024 7 11.26538 0 0
9:53 pm 21:53 Cloudy 28 -2.2 26 -3.3 92 92 ENE 9 15 30.15 1021 7 11.26538 0 0
10:53 pm 22:53 Cloudy with Mist and Fog 28 -2.2 26 -3.3 92 92 E 9 15 30.13 1020 6 9.65604 0 0
11:14 pm 23:14 Cloudy with Mist and Fog 28 -2 27 -3 93 93 E 8 13 30.27 1025 6 9.65604 0 0
11:53 pm 23:53 Cloudy with Mist and Fog 28 -2.2 26 -3.3 92 92 E 7 11 30.13 1020 6 9.65604 0 0

Powered by AerisWeather